Regional Weather Roundup
Issued by NWS

Home | Current Version | Previous Version | Graphics & Text | Print | Product List | Glossary On
Versions: 1 2 3 4 5 6 7 8 9 10 11 12 13 14 15 16 17 18 19 20 21 22 23 24 25 26 27
000
ASUS45 KBOU 251307
RWRCO

WEATHER ROUNDUP FOR COLORADO
NATIONAL WEATHER SERVICE DENVER/BOULDER CO
700 AM MDT SAT OCT 25 2014

NOTE: "FAIR" INDICATES FEW OR NO CLOUDS BELOW 12000 FEET WITH NO
SIGNIFICANT WEATHER AND/OR OBSTRUCTIONS TO VISIBILITY.

COZ001>005-013-030-031-251400-
...NORTHWEST COLORADO...

CITY           SKY/WX    TMP DP  RH WIND       PRES   REMARKS
CRAIG          PTCLDY    26  21  81 W3        30.32S
HAYDEN         PTCLDY    37  23  56 E12       30.33S
MEEKER         CLEAR     33  27  78 CALM      30.33R
MOUNT WERNER   NOT AVBL
STEAMBOAT SPGS PTCLDY    32  23  69 CALM      30.36S
WALDEN         CLEAR     30  19  64 SE8       30.40S WCI  23
$$

COZ006>008-011-251400-
...WEST CENTRAL VALLEYS...

CITY           SKY/WX    TMP DP  RH WIND       PRES   REMARKS
GRAND JUNCTION CLEAR     43  31  62 SE12      30.25S
MONTROSE       PTCLDY    40  28  62 S9        30.33S
EAGLE          CLEAR     28  27  93 CALM      30.44S
RIFLE          CLEAR     34  29  82 SE7       30.32S WCI  28
DELTA          PTCLDY    40  29  64 E6        30.31S
NUCLA          PTCLDY    43  25  49 E5        30.35S
$$

COZ017>023-064>068-251400-
...SOUTHWEST COLORADO...

CITY           SKY/WX    TMP DP  RH WIND       PRES   REMARKS
DURANGO        PTCLDY    36  30  79 N7        30.36S
CORTEZ         CLEAR     31  26  82 CALM      30.32R
PAGOSA SPRINGS PTCLDY    34  30  87 CALM      30.42R
TELLURIDE      PTCLDY    41  18  38 E7        30.49R
WOLF CREEK PAS PTCLDY    39   9  28 SW10        N/A
$$

COZ009-010-012-014-032>034-037-058>063-251400-
...CENTRAL COLORADO...

CITY           SKY/WX    TMP DP  RH WIND       PRES   REMARKS
ASPEN          PTCLDY    31  18  58 S3        30.41R
BUENA VISTA    CLEAR     31  19  62 NW6       30.44S WCI  25
COPPER MTN     CLEAR     45  -6  12 SW3       30.62S
BERTHOUD PASS  FAIR      34  32  93 NW17      30.65S WCI  23
COTTONWOOD PAS CLEAR     50   3  14 W9        30.51S
GUNNISON       PTCLDY    25  18  74 N3        30.51R
KREMMLING      CLEAR     23  19  86 CALM        N/A
LEADVILLE      PTCLDY    23  12  62 NE3       30.50F
MONARCH PASS   PTCLDY    37  18  44 W17       30.72S
SALIDA         CLEAR     37  21  52 CALM      30.50S
SUNLIGHT       CLEAR     43  18  36 CALM      30.57R
WILKERSON PASS NOT AVBL
$$

COZ069>075-251400-
...SAN LUIS VALLEY/SANGRE DE CRISTO MOUNTAINS...

CITY           SKY/WX    TMP DP  RH WIND       PRES   REMARKS
ALAMOSA        MOCLDY    27  23  85 CALM      30.42R
LA VETA PASS   CLEAR     45  21  39 S6        30.52S
SAGUACHE       PTCLDY    36  21  55 NW14      30.44R
$$

COZ035-036-038>040-251400-
...NORTHERN COLORADO FRONT RANGE...

CITY           SKY/WX    TMP DP  RH WIND       PRES   REMARKS
DENVER INTL AP CLEAR     52  22  30 SW8       30.23R
DMNS CITY PARK   N/A     47  26  43 S6        30.23S
AURORA         PTCLDY    48  22  35 S9        30.25R
FRONT RANGE AP CLEAR     46  28  49 SW8       30.24S
ERIE MUNI ARPT CLEAR     35  30  82 CALM      30.22S
BOULDER MUN AP CLEAR     46  27  46 S3        30.22S
CENTENNIAL     CLEAR     40  24  53 S5        30.25R
BROOMFIELD     CLEAR     59  19  21 CALM      30.24S
FORT COLLINS   CLEAR     43  28  56 S3        30.23R
LONGMONT       CLEAR     38  28  66 CALM      30.24S HAZE
$$

COZ041-046-047-076>085-087-088-251400-
...PIKES PEAK/PALMER DIVIDE AND SOUTHERN FOOTHILLS...

CITY           SKY/WX    TMP DP  RH WIND       PRES   REMARKS
COLO. SPRINGS  CLEAR     53  16  23 N6        30.26R
A. F. ACADEMY  CLEAR     44  17  34 N10       30.28S
ELLICOTT       NOT AVBL
FALCON         CLEAR     53  12  20 NW8       30.31R
FORT CARSON    CLEAR     51  20  29 NW10      30.23S
LIMON          CLEAR     39  28  64 CALM      30.23R
MONUMENT HILL  CLEAR     41  18  38 SW3       30.31S
TRINIDAD       CLEAR     49  26  41 SW16      30.25R
$$

COZ042>045-048>051-090-091-251400-
...NORTHEAST COLORADO...

CITY           SKY/WX    TMP DP  RH WIND       PRES   REMARKS
GREELEY ARPT   CLEAR     36  27  69 CALM      30.21S
AKRON          CLEAR     44  30  57 W15       30.17R
BURLINGTON     CLEAR     43  33  68 W8        30.14R
WRAY           CLEAR     41  31  68 N3        30.14R
STERLING       CLEAR     36  32  87 S5        30.15S
HOLYOKE        CLEAR     45  32  61 W7        30.14R
FORT MORGAN    CLEAR     43  28  54 W7        30.18S
$$

COZ086-089-092>099-251400-
...SOUTHEAST COLORADO...

CITY           SKY/WX    TMP DP  RH WIND       PRES   REMARKS
PUEBLO         CLEAR     44  28  53 W13       30.19R
LA JUNTA       PTCLDY    46  31  55 W12       30.15S
LAMAR          CLEAR     41  34  76 SW10      30.12R
SPRINGFIELD      N/A     47  34  60 NW8       30.15S
$$



USA.gov is the U.S. government's official web portal to all federal, state and local government web resources and services.